Regional Weather Roundup
Issued by NWS

Home | Current Version | Previous Version | Text Only | Print | Product List | Glossary On
Versions: 1 2 3 4 5 6 7 8 9 10 11 12 13 14 15 16 17 18 19 20 21 22 23 24 25 26 27 28 29 30 31 32 33 34 35 36 37 38 39 40 41 42 43 44 45 46 47 48 49 50
000
ASUS43 KFSD 300710
RWRSD

WEATHER ROUNDUP FOR SOUTH DAKOTA
NATIONAL WEATHER SERVICE SIOUX FALLS SD
200 AM CDT MON MAY 30 2016

NOTE: "FAIR" INDICATES FEW OR NO CLOUDS BELOW 12,000 FEET WITH NO
SIGNIFICANT WEATHER AND/OR OBSTRUCTIONS TO VISIBILITY.


SDZ001>005-009-010-012>017-300800-
NORTHWEST AND NORTH CENTRAL SOUTH DAKOTA

CITY           SKY/WX    TMP DP  RH WIND       PRES   REMARKS
BUFFALO          N/A     57  48  72 S5        29.89F
FAITH            N/A     57  48  72 SE13      29.95F
MOBRIDGE       CLEAR     58  54  86 SE7       29.92F
$$

SDZ012>016-024>037-041>051-057-063-072>074-300800-
SOUTHWEST AND SOUTH CENTRAL SOUTH DAKOTA

CITY           SKY/WX    TMP DP  RH WIND       PRES   REMARKS
RAPID CTY ARPT CLEAR     53  50  89 N6        29.96F
PIERRE         LGT RAIN  63  54  72 E10       29.94F
CUSTER         CLEAR     45  40  82 N5        30.06F
ELLSWORTH AFB  CLEAR     58  53  84 CALM      29.96F
PHILIP         CLEAR     60  55  83 E10       29.91F
PINE RIDGE     CLOUDY    59  51  75 SW8       29.96S
WINNER         FAIR      64  56  75 S10       29.93F
$$

SDZ004>011-016>023-039-040-300800-
NORTHEAST SOUTH DAKOTA

CITY           SKY/WX    TMP DP  RH WIND       PRES   REMARKS
ABERDEEN       CLEAR     56  50  80 CALM      29.96F
WATERTOWN      CLEAR     59  50  72 SE5       29.99F
BROOKINGS      CLEAR     58  53  84 CALM      30.00F
SISSETON         N/A     57  46  66 S5        29.95F
$$

SDZ017-020-022-023-036>040-048>070-300800-
SOUTHEAST SOUTH DAKOTA

CITY           SKY/WX    TMP DP  RH WIND       PRES   REMARKS
SIOUX FALLS    CLOUDY    58  55  90 N3        29.99F
HURON          CLOUDY    59  53  80 S7        29.95F
CHAMBERLAIN    CLOUDY    67  58  73 NE8       29.99R
MITCHELL       CLOUDY    64  57  78 S6        29.98S
YANKTON        CLOUDY    64  55  72 NW10      30.01R THUNDER
$$

ABBREVIATIONS USED IN REMARKS
   TC - TEMPERATURE IN CELSIUS
  WCI - WIND CHILL INDEX
   HX - HEAT INDEX
  VSB - VISIBILITY




USA.gov is the U.S. government's official web portal to all federal, state and local government web resources and services.